Dewpoint
64 64 64 64 63 64 63 63 62 63 62 63 63 62 62 63 64 65 64 65 64 65 64 63 62 63 62 62 62 61 60 60 60 61 61 61 62 64 64 64 64 65 63 62 61 61 60 59 61 61 61 61 58 59 59 59 59 60 59 60 60 60 61 61 61 61 62 61 61 61 61 61 62 63 62 62 62 62 62 62 62 63 64 64 64
64 64 64 64 64 63 64 64 63 62 62 62 62 61 61 62 63 64 65 65 65 64 64 63 62 62 61 62 62 61 60 60 60 61 61 61 62 63 64 65 65 66 65 62 62 61 60 60 60 62 62 61 59 59 58 58 59 59 60 60 60 60 60 60 60 60 61 61 61 61 61 61 63 63 63 63 62 62 62 62 62 62 63 63 63
65 65 64 64 63 63 64 64 63 63 63 62 61 61 61 61 62 63 64 64 64 64 63 63 62 61 61 62 62 61 60 60 60 61 61 61 61 62 64 65 65 66 65 65 63 61 60 61 60 61 61 61 59 60 58 59 59 59 60 60 60 60 60 59 59 59 59 61 61 61 61 62 62 63 63 63 63 62 62 62 62 62 62 62 62
64 65 66 65 64 64 64 64 64 63 63 63 62 61 61 61 62 62 63 63 64 64 64 62 61 61 61 61 61 61 60 60 60 61 61 61 61 61 63 64 66 65 64 65 64 62 61 62 61 61 61 60 59 60 59 59 59 59 60 60 60 60 60 60 59 59 59 59 60 61 62 62 62 63 63 63 63 62 62 62 62 62 61 61 61
64 64 66 66 66 64 64 64 64 64 63 63 63 62 62 62 62 62 62 63 63 63 63 61 61 61 61 61 61 61 61 60 60 60 61 61 61 61 61 63 62 64 65 64 65 64 62 63 62 61 62 58 59 60 60 60 59 59 60 60 60 60 60 59 60 59 59 59 59 60 61 61 62 62 62 63 63 63 63 63 62 62 62 62 62
65 64 65 64 65 65 64 64 64 64 63 63 63 62 62 61 62 61 64 62 62 63 62 61 61 61 61 61 60 60 61 60 60 60 61 61 61 61 61 61 62 62 63 64 65 65 64 65 63 60 61 60 60 60 60 60 60 60 60 60 60 60 60 60 60 60 60 59 60 61 61 61 61 62 62 62 63 63 63 63 63 63 62 62 62
65 64 64 64 64 65 65 65 64 64 63 63 63 62 61 62 61 61 61 61 61 62 62 61 61 61 60 62 62 63 62 61 60 60 61 60 61 61 61 61 61 61 62 62 65 65 65 66 62 60 59 60 60 61 60 61 60 61 60 60 61 62 61 61 61 60 60 60 60 61 61 61 61 62 62 62 62 62 63 63 63 63 63 62 62
65 64 64 64 64 65 65 65 64 63 63 63 63 63 61 62 62 61 61 61 61 61 61 61 61 61 61 62 62 63 63 62 62 60 60 60 61 61 61 61 61 61 63 61 60 62 64 65 64 63 60 60 61 61 61 61 61 62 61 61 62 62 63 62 62 61 60 60 59 59 61 62 61 61 62 62 62 62 63 63 63 63 63 63 63
65 65 65 64 64 64 64 64 64 64 63 62 62 63 62 63 62 63 62 61 61 61 61 61 61 61 61 61 62 62 63 63 63 62 62 61 60 61 61 61 62 64 62 60 60 60 64 65 64 63 63 62 61 61 61 61 61 62 62 63 63 63 63 63 63 61 60 59 59 59 61 61 60 61 61 62 62 63 62 62 62 62 63 63 63
64 65 65 65 64 63 63 64 65 65 64 62 63 62 62 62 62 62 62 62 61 61 61 61 61 61 60 60 61 61 62 62 63 64 62 61 60 60 61 61 61 62 62 61 60 60 61 64 64 63 62 63 63 61 61 62 61 63 62 63 62 63 63 64 64 63 61 60 59 59 59 60 60 61 62 62 62 62 62 62 62 62 62 63 63
65 65 65 65 65 64 64 63 64 65 65 64 63 62 62 62 62 62 62 63 62 61 62 61 61 60 60 60 61 61 62 62 63 63 62 62 61 62 60 60 60 61 61 61 60 60 60 61 61 61 60 63 63 62 62 61 62 63 63 63 64 64 63 64 64 64 63 61 59 59 59 60 60 61 62 62 62 62 62 62 63 63 63 63 62
64 64 65 65 65 64 63 62 63 64 65 65 64 63 63 62 62 62 62 62 63 62 61 61 60 60 60 60 61 60 61 62 62 62 63 62 62 62 61 60 60 60 61 61 60 60 60 60 62 61 59 62 63 63 63 63 63 63 64 64 64 64 63 64 64 64 64 61 60 60 60 60 61 61 61 62 62 61 61 62 62 62 63 63 63
64 63 63 64 63 61 61 62 62 63 64 65 65 64 64 64 63 62 62 61 62 61 61 61 60 60 59 60 60 61 62 62 62 62 62 63 63 62 62 61 60 60 60 60 60 59 59 59 60 61 60 61 63 63 63 63 63 62 64 64 65 65 64 63 65 63 64 62 61 61 60 61 61 62 61 62 62 62 62 62 62 62 62 63 62
64 64 64 63 63 64 64 64 64 64 64 64 64 65 64 64 63 62 63 62 62 62 61 60 59 59 58 56 57 60 61 61 61 61 62 62 63 62 62 61 60 60 60 60 60 59 59 59 60 60 60 60 61 61 61 62 63 64 63 64 65 66 64 65 65 64 64 62 61 61 61 61 61 62 61 61 62 62 62 62 62 62 62 62 62
63 64 63 63 64 65 65 65 65 65 64 64 64 64 65 65 64 62 62 62 62 62 62 61 60 59 58 57 56 55 56 59 61 61 62 62 62 62 62 62 61 60 60 60 59 59 59 59 59 60 60 60 60 60 61 62 62 63 64 64 64 64 65 64 65 64 63 64 62 62 61 61 62 62 62 62 61 62 62 62 61 62 62 61 61
64 64 63 63 62 63 64 64 64 63 63 63 63 64 64 64 64 63 63 61 62 62 63 63 62 59 56 56 56 55 55 56 57 59 61 61 62 62 63 63 62 61 61 60 59 59 59 59 59 60 60 60 60 60 61 61 62 63 63 63 64 64 65 65 64 65 63 63 62 62 62 61 62 62 62 61 61 61 61 62 61 61 62 61 61
64 64 64 64 64 63 63 62 62 62 62 62 63 63 63 63 63 63 63 62 61 61 62 63 62 62 60 57 55 55 55 55 55 57 59 60 61 61 62 62 62 62 61 60 60 59 59 59 59 60 60 60 60 61 61 61 62 63 62 63 64 64 64 64 65 65 64 63 63 62 62 61 61 62 62 62 62 62 62 62 62 61 62 61 60
64 64 64 64 63 63 63 62 62 62 62 62 63 63 62 62 62 63 62 62 61 61 60 62 62 62 62 61 60 57 55 55 55 54 58 60 60 61 61 62 62 62 61 60 60 59 59 59 59 59 60 60 61 61 61 61 63 62 62 62 63 64 64 64 65 65 64 64 64 62 62 61 62 63 62 62 61 61 61 62 62 62 61 60 59
63 63 63 63 63 62 62 62 62 62 63 62 63 63 63 63 63 63 63 62 62 60 60 60 61 62 62 62 62 61 60 57 55 55 55 58 60 60 61 62 62 62 61 61 60 59 59 59 59 59 60 60 61 61 61 61 63 63 63 63 63 62 62 62 64 64 65 65 64 63 63 62 62 62 63 62 61 61 61 61 61 61 60 59 59
63 63 63 64 64 64 64 63 63 63 64 63 62 62 63 64 64 64 64 63 62 61 61 61 60 60 62 62 62 62 61 60 59 57 56 55 57 61 61 62 62 62 62 61 61 60 59 60 59 59 59 60 61 61 61 61 62 63 62 62 62 62 62 61 61 61 63 64 63 65 62 63 63 63 62 61 60 59 59 60 60 60 59 59 58
62 62 62 63 64 64 64 63 63 63 63 63 63 63 63 63 63 63 63 63 63 62 61 61 61 60 60 60 61 60 60 60 60 59 57 55 55 58 59 61 62 62 62 62 62 61 60 60 60 59 59 60 60 61 61 60 61 62 63 61 61 61 61 61 58 57 57 63 63 63 63 63 63 63 62 61 60 59 58 58 58 59 59 58 57
60 61 60 61 62 63 64 63 63 63 63 63 63 63 63 63 63 64 64 63 63 62 62 62 62 61 61 60 60 60 60 59 59 59 58 57 55 56 58 58 58 60 61 61 61 62 61 61 61 60 59 59 60 61 61 60 60 61 62 61 61 61 62 62 57 57 58 58 62 63 63 63 63 63 62 61 61 60 58 58 57 58 58 58 57
58 59 59 60 61 62 63 63 63 63 63 63 62 62 63 63 64 64 64 63 63 62 62 62 62 62 62 61 61 60 59 58 58 58 58 56 56 56 57 59 59 59 60 61 61 61 62 61 61 61 60 60 60 61 61 61 61 61 61 60 61 61 61 60 57 56 57 60 61 64 64 64 63 63 62 61 60 59 58 58 58 59 59 57 56
56 57 56 58 59 60 62 61 60 61 61 62 62 63 63 63 63 63 63 64 64 63 63 62 62 62 62 62 61 61 61 60 59 59 58 58 57 56 56 57 59 59 59 60 61 61 61 61 61 61 61 61 61 61 61 62 62 61 61 60 60 60 61 61 58 57 55 57 59 62 64 64 64 63 62 61 60 59 58 58 58 58 57 57 57
53 53 54 56 57 57 58 59 58 58 59 58 57 57 58 61 62 63 63 63 63 63 62 63 63 62 62 62 62 62 61 61 61 60 60 59 58 57 58 58 57 58 59 59 59 61 61 61 61 61 61 62 62 62 62 62 62 62 61 61 59 59 59 62 61 58 56 54 57 62 63 63 63 63 62 61 60 59 58 57 57 56 56 56 57
51 52 52 53 53 52 53 53 54 56 54 52 52 52 53 56 59 59 60 62 62 62 62 62 62 62 62 62 62 62 61 61 61 61 60 59 58 58 57 57 58 57 56 58 59 59 60 61 61 61 61 61 61 62 62 62 62 61 61 62 60 58 57 59 61 60 58 55 54 59 60 61 62 63 62 61 60 58 56 55 55 55 53 53 54
49 50 50 50 50 49 49 49 51 52 50 49 48 49 51 53 54 55 56 56 57 59 61 62 62 62 62 62 62 62 62 62 62 61 60 60 59 59 58 56 56 57 56 58 58 59 59 61 61 61 61 61 61 61 62 62 62 61 61 62 62 58 57 58 60 61 59 55 53 56 57 58 58 59 59 58 57 54 55 56 56 54 53 53 55
47 48 47 47 48 48 47 47 48 49 48 48 46 47 49 51 51 52 52 52 53 54 58 60 61 62 61 62 62 62 62 62 62 62 61 60 60 60 59 58 56 54 56 56 57 58 60 59 60 61 61 61 61 62 62 62 62 61 60 62 62 60 56 56 58 60 59 56 54 55 55 56 56 56 56 56 57 55 56 57 56 54 52 54 57
46 47 46 46 46 46 46 46 47 45 44 45 45 45 46 47 47 48 49 49 51 52 54 57 59 61 61 61 61 61 62 62 62 62 62 61 61 60 60 59 58 56 54 54 56 57 59 60 59 60 61 61 61 62 62 62 62 61 62 62 62 61 58 56 56 57 57 55 54 55 56 57 57 57 58 58 57 57 56 55 56 55 53 55 57
46 46 45 45 45 46 45 46 46 43 43 42 42 42 43 45 44 45 46 47 48 49 51 53 54 57 60 61 62 61 62 62 61 61 61 62 61 61 61 60 60 57 56 55 55 57 57 59 60 59 60 60 61 62 62 62 61 61 62 62 62 61 57 55 55 54 55 54 53 52 53 55 57 57 58 57 57 56 55 54 54 54 54 57 57
45 44 44 44 44 44 44 45 44 42 41 41 42 41 41 42 42 43 43 44 45 46 48 49 51 54 56 58 60 61 62 62 61 61 61 62 61 62 61 61 60 59 58 57 55 56 58 57 59 60 60 60 61 61 62 62 61 61 62 62 62 59 57 56 55 54 54 54 52 52 54 55 55 56 57 57 57 56 55 56 55 55 56 56 55
43 43 42 43 43 43 43 44 44 42 41 41 41 40 40 41 41 42 42 42 42 42 44 46 48 50 52 54 56 59 62 62 62 62 61 61 61 61 61 61 60 60 59 58 56 56 58 58 58 60 60 60 60 61 61 62 62 59 62 62 62 59 59 58 54 54 54 53 52 53 57 57 55 56 57 56 56 56 56 57 57 56 56 54 53
42 42 42 42 42 42 42 42 42 41 40 40 40 40 40 40 40 41 41 41 41 42 43 43 45 47 49 51 52 55 60 61 61 62 62 62 62 61 61 61 60 60 59 58 56 56 57 57 58 59 59 60 59 60 61 61 61 60 60 61 61 60 59 59 57 53 53 53 52 51 52 53 53 57 57 55 56 56 55 54 55 54 54 52 52
42 41 41 41 42 41 41 41 41 40 40 40 39 39 39 39 39 40 41 40 41 41 42 42 42 43 45 47 50 51 55 60 61 61 62 61 62 61 61 61 60 60 60 58 57 57 56 56 57 59 60 60 59 60 60 60 60 60 61 61 61 60 59 59 58 56 52 53 52 51 52 53 52 54 53 51 52 52 52 51 51 51 52 50 49
43 42 41 41 41 41 41 41 40 40 39 39 39 39 39 38 39 39 40 40 40 41 41 42 42 43 43 45 47 49 52 54 59 61 61 61 61 61 61 61 60 60 60 60 58 57 56 57 58 58 58 59 59 59 60 60 60 60 60 60 60 59 59 58 58 57 52 52 51 51 51 52 52 51 51 51 51 51 51 51 50 50 50 49 48
41 42 42 41 41 40 41 40 40 39 39 39 39 39 38 38 38 39 39 40 40 41 41 41 42 43 44 44 45 46 49 51 54 59 61 61 61 61 61 61 61 60 60 60 60 58 58 57 57 58 58 58 59 59 60 60 60 60 60 60 60 59 58 58 58 57 54 51 51 51 51 52 51 51 50 50 50 50 50 49 50 49 49 49 49
42 41 42 42 41 41 41 40 40 39 39 39 39 38 38 38 38 39 39 40 40 41 42 42 44 43 44 44 45 46 47 49 52 56 60 60 60 61 61 61 61 61 60 60 60 59 58 57 57 58 59 59 59 59 59 59 60 59 60 60 60 59 58 57 57 57 54 51 51 51 51 51 50 50 50 49 50 50 49 49 49 49 49 49 49
42 41 41 41 42 40 40 40 40 40 39 39 38 38 38 38 38 38 39 40 40 41 42 42 43 43 44 44 45 46 48 49 51 54 56 59 60 60 61 61 61 60 60 60 60 59 59 58 58 57 58 58 58 58 59 59 59 58 58 59 59 59 58 56 56 56 55 53 53 53 52 51 50 50 50 49 49 49 49 49 49 49 49 48 48
41 40 40 40 41 40 40 40 40 40 39 39 38 38 38 38 38 38 39 39 40 40 42 42 43 44 44 45 46 47 49 50 52 53 54 54 55 58 60 61 61 60 59 59 59 59 59 58 58 58 57 58 58 58 59 59 59 59 57 57 56 57 57 56 56 55 55 54 52 51 52 52 52 51 50 49 49 49 49 48 49 49 49 48 48
40 39 39 39 39 39 39 39 39 40 38 38 38 38 38 38 38 38 38 39 39 39 40 41 42 43 43 44 44 46 48 50 50 50 51 51 51 53 57 60 60 60 59 59 59 59 58 58 58 57 58 57 57 58 58 58 58 57 58 56 55 55 55 56 56 55 55 54 54 53 51 51 51 50 49 49 49 49 49 49 49 49 49 48 47
41 40 39 39 39 38 38 38 38 39 38 38 39 38 38 38 38 38 38 39 39 39 40 40 41 41 42 42 43 44 47 50 47 47 47 47 48 49 51 56 59 60 59 59 58 58 58 58 57 58 57 57 57 57 56 56 56 56 56 56 56 55 55 55 56 56 55 54 54 54 53 53 53 52 51 51 51 50 50 49 50 50 49 47 47
40 41 39 39 38 38 38 37 37 38 38 38 40 40 39 38 38 38 38 38 38 38 39 39 40 40 41 41 43 46 45 46 46 44 43 44 45 45 46 47 52 58 59 59 58 58 57 57 57 57 56 56 56 57 56 56 57 57 56 56 55 55 55 53 51 53 54 54 53 53 54 54 54 53 52 52 52 51 51 50 51 50 48 46 46
40 40 39 38 38 38 38 37 37 37 37 38 39 37 37 38 38 38 38 38 38 38 38 39 39 40 40 40 41 44 44 45 44 43 42 42 41 41 41 42 44 48 55 59 59 58 57 57 57 57 56 56 56 57 57 57 57 56 56 56 55 54 53 51 50 50 53 54 52 53 53 54 54 53 53 53 53 52 52 51 49 48 47 45 46
39 38 38 38 38 38 38 37 37 37 37 39 37 37 37 37 38 38 38 37 38 37 37 38 39 39 39 39 40 42 42 43 43 42 42 41 40 40 40 40 41 43 45 51 57 58 58 57 57 57 57 56 56 57 57 57 56 56 56 55 55 54 53 52 51 50 50 54 52 51 51 53 54 54 53 53 54 53 52 50 48 47 46 45 45
38 37 37 38 38 38 38 37 37 37 36 38 37 37 37 37 37 38 37 37 37 37 37 37 38 39 38 39 40 41 41 44 44 40 40 40 41 40 40 41 42 44 44 43 45 54 59 58 57 57 57 57 57 57 58 57 57 56 56 55 55 54 53 52 53 52 50 52 52 50 50 51 53 53 53 53 54 54 53 49 48 47 47 46 45
37 37 37 37 37 37 37 37 37 36 36 38 37 37 37 36 36 37 37 37 37 37 37 37 37 38 39 38 39 40 40 40 40 39 39 39 39 39 40 41 43 45 47 46 45 44 48 56 58 57 58 58 57 58 58 57 57 56 55 55 55 54 53 53 53 52 51 51 51 49 47 48 52 52 51 52 53 53 53 51 47 47 47 46 45
36 36 36 36 36 37 36 37 37 36 36 37 37 36 36 36 36 37 36 37 36 36 36 37 37 38 38 38 39 39 39 39 39 39 38 38 38 39 39 40 42 45 49 53 55 54 53 53 56 59 59 59 59 59 59 59 58 58 57 56 55 55 54 53 51 51 51 52 51 50 47 46 50 50 50 49 51 52 52 48 47 47 46 46 45
36 36 36 36 36 35 36 36 36 35 35 36 36 36 36 36 37 37 36 36 36 36 36 36 37 37 38 38 38 38 38 38 39 38 38 38 38 38 39 41 42 45 47 51 51 52 55 57 57 58 59 59 55 58 58 59 59 59 57 55 55 54 53 52 51 48 49 51 51 51 48 46 49 49 43 42 47 48 48 50 46 47 46 46 45
35 35 36 35 35 35 35 35 35 35 34 35 36 36 36 36 37 36 36 36 36 35 36 36 36 37 37 38 38 38 37 37 38 36 36 38 38 38 39 40 42 44 46 50 50 47 47 48 49 50 51 51 50 50 50 50 54 57 58 56 54 54 52 51 50 48 48 49 50 51 47 46 48 47 43 42 43 42 44 47 48 46 46 46 45
34 35 36 36 35 35 35 34 35 36 34 35 36 36 36 36 37 36 36 35 35 35 35 36 36 36 37 40 41 38 37 37 37 36 36 37 37 38 38 39 40 42 45 48 53 53 47 45 46 46 47 47 48 47 48 48 48 53 57 55 55 54 52 51 50 49 49 49 49 51 47 46 46 44 43 43 42 42 41 42 45 47 46 45 45
34 34 38 35 35 35 35 35 38 35 33 35 36 35 36 36 37 36 36 35 35 35 35 35 36 36 36 38 39 38 38 37 35 36 36 37 37 37 38 39 40 41 44 47 50 52 52 51 51 51 50 49 51 54 54 47 48 52 58 58 56 54 53 52 51 48 47 47 49 50 46 44 44 43 43 42 40 42 43 42 44 45 46 45 44